Location: Cherryland
(37.6794°N, 122.1033°W)
Time: 13:12:52
(UTC+00:00)

Cosmos 2333 - Pass Details

Date: 14 December 2025
Orbit: 829 x 864 km, 70.9° (Epoch: 17 January)

Event Time Altitude Azimuth Distance (km) Brightness Sun altitude
Exits shadow 14:09:26 10° 328° (NNW) 2,506 6.2 -12.8°
Reaches altitude 10° 14:09:29 10° 328° (NNW) 2,488 6.2 -12.8°
Maximum altitude 14:15:00 52° 253° (WSW) 1,046 4.4 -11.8°
Drops below altitude 10° 14:20:26 10° 178° (S) 2,450 6.9 -10.8°
Sets 14:22:55 0° 174° (S) 3,375 7.7 -10.3°
